Flag for U.S.A. Weather past 2 weeks in Hereford, Texas, U.S.A.

Now
68 °F

Passing clouds.


Feels Like: 68 °F
Forecast: 67 / 87 °F
Wind: 3 mph from East

Location: Clovis Municipal

Current Time: Aug 1, 2015 at 5:07:52 AM

Latest Report: Aug 1, 2015 at 4:35 AM


Visibility: 7 mi

Pressure: 30.24 "Hg (26.39 "Hg at 1167m altitude)

Humidity: 94%

Dew point: 66 °F

Location of HerefordLocation

Historic Weather in Hereford — Graph

°F

Hereford temperature yesterday

Maximum temperature yesterday: 86 °F (at 3:55 PM)
Minimum temperature yesterday: 66 °F (at 4:55 AM)
Average temperature yesterday: 74 °F

Past Weeks' High & Low Weather Summary

 TemperatureHumidityPressure
High99 °F (Jul 27, 3:55 PM)100% (Jul 21, 7:35 AM)30.37 "Hg (Jul 21, 7:35 AM)
Low63 °F (Jul 20, 9:15 PM)23% (Jul 27, 3:15 PM)29.95 "Hg (Jul 27, 6:35 PM)
Average77 °F61%30.12 "Hg
* Reported Jul 17 3:15 AM — Aug 1 3:55 AM, Hereford, Weather by CustomWeather, © 2015

Note: Actual official high and low records may vary slightly from our data, if they occured in-between our weather recording intervals... More about our weather records

Advertising

Hereford weather history for previous 24 hours

 ConditionsComfort  
Time TempWeatherWind HumidityBarometerVisibility
3:55 AM
Sat, Aug 1
68 °FMostly cloudy.6 mph88%30.24 "Hg10 mi
3:35 AM68 °FOvercast.7 mph88%30.25 "Hg10 mi
3:15 AM68 °FMostly cloudy.7 mph88%30.26 "Hg10 mi
2:55 AM68 °FMostly cloudy.5 mph88%30.26 "Hg10 mi
2:35 AM70 °FOvercast.6 mph83%30.26 "Hg10 mi
2:15 AM70 °FOvercast.7 mph83%30.26 "Hg10 mi
1:55 AM68 °FPassing clouds.9 mph88%30.26 "Hg10 mi
1:35 AM68 °FClear.7 mph88%30.26 "Hg10 mi
1:15 AM68 °FPassing clouds.6 mph88%30.26 "Hg10 mi
12:55 AM68 °FPassing clouds.8 mph88%30.27 "Hg10 mi
12:35 AM68 °FClear.5 mph88%30.27 "Hg8 mi
12:15 AM66 °FClear.6 mph94%30.27 "Hg10 mi
11:55 PM
Fri, Jul 31
68 °FClear.5 mph88%30.26 "Hg10 mi
11:35 PM68 °FClear.7 mph88%30.26 "Hg10 mi
10:55 PM70 °FClear.7 mph78%30.25 "Hg10 mi
10:35 PM70 °FPassing clouds.7 mph78%30.25 "Hg10 mi
9:55 PM70 °FMostly cloudy.7 mph83%30.25 "Hg10 mi
9:35 PM70 °FOvercast.8 mph83%30.25 "Hg10 mi
9:15 PM75 °FThundershowers. Partly sunny.7 mph65%30.24 "Hg10 mi
8:55 PM75 °FPassing clouds.7 mph69%30.22 "Hg10 mi
8:35 PM75 °FScattered clouds.5 mph69%30.21 "Hg10 mi
8:15 PM77 °FPassing clouds.6 mph65%30.21 "Hg10 mi
7:55 PM79 °FPassing clouds.7 mph58%30.21 "Hg10 mi
7:35 PM81 °FThundershowers. Scattered clouds.7 mph54%30.21 "Hg8 mi
7:15 PM81 °FThundershowers. Scattered clouds.13 mph51%30.21 "Hg10 mi
6:55 PM82 °FThundershowers. Partly sunny.17 mph51%30.20 "Hg10 mi
6:35 PM84 °FThundershowers. Broken clouds.3 mph48%30.20 "Hg10 mi
6:15 PM84 °FThundershowers. Mostly cloudy.3 mph45%30.20 "Hg10 mi
5:55 PM84 °FCloudy.7 mph45%30.21 "Hg10 mi
5:35 PM84 °FBroken clouds.6 mph45%30.21 "Hg10 mi
4:35 PM86 °FSunny.No wind46%30.22 "Hg10 mi
4:15 PM84 °FSunny.3 mph45%30.23 "Hg10 mi
3:55 PM86 °FSunny.8 mph46%30.25 "Hg10 mi
3:35 PM84 °FSunny.5 mph48%30.25 "Hg10 mi
3:15 PM84 °FSunny.5 mph48%30.26 "Hg10 mi
2:55 PM84 °FSunny.5 mph48%30.27 "Hg10 mi
2:35 PM82 °FSunny.6 mph51%30.28 "Hg10 mi
2:15 PM82 °FSunny.8 mph51%30.29 "Hg10 mi
1:55 PM81 °FSunny.7 mph54%30.30 "Hg10 mi
1:35 PM81 °FScattered clouds.6 mph54%30.31 "Hg10 mi
1:15 PM81 °FScattered clouds.5 mph54%30.32 "Hg10 mi
12:55 PM79 °FScattered clouds.5 mph58%30.32 "Hg10 mi
12:35 PM79 °FPartly sunny.7 mph58%30.33 "Hg10 mi
12:15 PM77 °FPartly sunny.8 mph61%30.33 "Hg10 mi
11:55 AM77 °FPartly sunny.10 mph57%30.33 "Hg10 mi
11:35 AM75 °FScattered clouds.12 mph65%30.33 "Hg10 mi
11:15 AM73 °FSunny.10 mph74%30.33 "Hg10 mi
10:55 AM73 °FPartly sunny.10 mph74%30.33 "Hg10 mi
10:35 AM73 °FPartly sunny.10 mph69%30.33 "Hg10 mi
10:15 AM72 °FPassing clouds.9 mph73%30.33 "Hg10 mi
9:55 AM70 °FPassing clouds.10 mph78%30.33 "Hg10 mi
9:35 AM70 °FScattered clouds.13 mph78%30.32 "Hg10 mi
9:15 AM68 °FPartly sunny.13 mph83%30.32 "Hg10 mi
8:55 AM66 °FScattered clouds.12 mph88%30.32 "Hg10 mi
8:35 AM66 °FPartly sunny.12 mph88%30.32 "Hg10 mi
8:15 AM66 °FScattered clouds.13 mph88%30.32 "Hg10 mi
7:55 AM66 °FPassing clouds.10 mph88%30.31 "Hg10 mi
7:35 AM66 °FClear.12 mph88%30.31 "Hg10 mi
7:15 AM66 °FClear.10 mph88%30.31 "Hg10 mi
6:55 AM66 °FPassing clouds.14 mph88%30.31 "Hg10 mi
6:35 AM66 °FPartly cloudy.13 mph88%30.31 "Hg10 mi
6:15 AM66 °FMostly cloudy.12 mph88%30.32 "Hg10 mi
5:55 AM66 °FMostly cloudy.10 mph88%30.32 "Hg10 mi
5:35 AM66 °FThundershowers. Mostly cloudy.12 mph88%30.31 "Hg10 mi
5:15 AM66 °FThundershowers. Overcast.10 mph94%30.32 "Hg10 mi
Weather by CustomWeather, © 2015

See weather overviewHow to use our weather pages